EW1107 Weather Reports


Display with metric or nautical units.
time (UTC)temp
F
wind
direction
speed
MPH
gust
MPH
rain 1hr
in
rain 24hr
in
rain mn
in
humidity
%
barometer
mb
20210624004524 65 338 0.0 0.0 0.00 0.00 0.00 91 1016.7
20210624003027 65 337 0.0 0.0 0.00 0.00 0.00 91 1016.9
20210624001522 66 338 0.0 0.0 0.00 0.00 0.00 91 1017.0
20210624000013 66 338 0.0 0.0 0.00 0.00 0.00 91 1017.2
20210623234534 66 338 0.0 0.0 0.00 0.00 0.00 90 1017.2
20210623233036 66 338 0.0 0.0 0.00 0.00 0.00 90 1017.4
20210623231538 66 337 0.0 0.0 0.00 0.00 0.00 90 1017.6
20210623230008 66 338 0.0 0.0 0.00 0.00 0.00 91 1017.7
20210623224509 65 338 0.0 0.0 0.00 0.00 0.00 91 1017.8
20210623223008 65 338 0.0 0.0 0.00 0.00 0.00 91 1017.9
20210623221754 65 338 0.0 0.0 0.00 0.00 0.00 91 1018.1
20210623220218 65 338 0.0 0.0 0.00 0.00 0.00 90 1018.0
20210623214613 66 337 0.0 0.0 0.00 0.00 0.00 90 1018.0
20210623213259 66 338 0.0 0.0 0.00 0.00 0.00 89 1017.8
20210623211648 66 338 0.0 0.0 0.00 0.00 0.00 88 1017.8
20210623210143 67 338 0.0 0.0 0.00 0.00 0.00 88 1017.8
20210623204625 67 338 0.0 0.0 0.00 0.00 0.00 87 1017.8
20210623203146 68 338 0.0 0.0 0.00 0.00 0.00 87 1017.9
20210623201616 68 338 0.0 0.0 0.00 0.00 0.00 87 1017.9
20210623200114 68 337 0.0 0.0 0.00 0.00 0.00 86 1017.9
20210623194654 68 338 0.0 0.0 0.00 0.00 0.00 86 1017.8
20210623193234 69 336 0.0 2.0 0.00 0.00 0.00 85 1017.9
20210623191621 69 297 0.0 4.0 0.00 0.00 0.00 85 1017.8
20210623190130 70 360 0.0 0.0 0.00 0.00 0.00 84 1017.7
20210623184558 70 341 0.0 9.0 0.00 0.00 0.00 83 1017.7
20210623183134 70 315 0.0 9.0 0.00 0.00 0.00 83 1017.6
20210623181635 71 312 2.0 11.0 0.00 0.00 0.00 82 1017.7
20210623180215 71 336 2.0 11.0 0.00 0.00 0.00 82 1017.7
20210623174617 72 288 8.0 15.0 0.00 0.00 0.00 81 1017.8
20210623173112 72 348 5.0 17.0 0.00 0.00 0.00 80 1017.8
20210623171619 72 327 3.0 20.0 0.00 0.00 0.00 82 1017.7
20210623170045 72 309 6.0 17.0 0.00 0.00 0.00 81 1017.5
20210623164556 72 306 7.0 21.0 0.00 0.00 0.00 81 1017.6
20210623163100 73 305 9.0 19.0 0.00 0.00 0.00 80 1017.4
20210623161650 73 307 8.0 17.0 0.00 0.00 0.00 80 1017.4
20210623160101 74 316 3.0 17.0 0.00 0.00 0.00 79 1017.3
20210623154536 74 284 0.0 9.0 0.00 0.00 0.00 78 1017.3
20210623153048 74 311 6.0 15.0 0.00 0.00 0.00 76 1017.3
20210623151614 74 36 7.0 17.0 0.00 0.00 0.00 78 1017.2
20210623150119 74 291 4.0 13.0 0.00 0.01 0.00 77 1017.2
20210623144532 74 355 6.0 17.0 0.00 0.01 0.00 78 1017.1
20210623143118 75 341 9.0 13.0 0.00 0.01 0.00 75 1017.1
20210623141615 75 314 8.0 14.0 0.00 0.01 0.00 76 1017.1
20210623140043 75 298 2.0 19.0 0.00 0.01 0.00 77 1017.0
20210623134643 76 283 13.0 23.0 0.00 0.01 0.00 72 1016.9
20210623133100 78 300 10.0 17.0 0.00 0.01 0.00 67 1016.7
20210623131536 77 355 8.0 15.0 0.00 0.01 0.00 72 1016.7
20210623130046 75 315 9.0 21.0 0.00 0.01 0.00 75 1016.7
20210623124536 76 269 6.0 15.0 0.00 0.01 0.00 74 1016.7
20210623123036 76 28 4.0 17.0 0.00 0.01 0.00 75 1016.9
20210623121545 76 355 6.0 15.0 0.00 0.01 0.00 74 1016.9
20210623120016 75 331 1.0 13.0 0.00 0.01 0.00 76 1017.1
20210623114537 74 347 6.0 14.0 0.00 0.01 0.00 77 1017.2
20210623113021 73 339 3.0 18.0 0.00 0.01 0.00 79 1017.2
20210623111600 72 5 4.0 11.0 0.00 0.01 0.00 82 1017.2
20210623110025 72 355 2.0 14.0 0.00 0.01 0.00 83 1017.1
20210623104511 72 19 5.0 19.0 0.00 0.01 0.00 82 1017.0
20210623103013 74 320 7.0 15.0 0.00 0.01 0.00 79 1017.0
20210623101509 71 331 2.0 9.0 0.00 0.01 0.00 85 1016.9
20210623100019 71 290 9.0 19.0 0.00 0.01 0.00 85 1017.0
20210623094508 71 284 6.0 20.0 0.00 0.01 0.00 84 1016.8
20210623093005 73 311 7.0 16.0 0.00 0.01 0.00 82 1016.8
20210623090202 70 308 4.0 13.0 0.00 0.01 0.00 86 1016.7
20210623084658 71 283 8.0 19.0 0.00 0.01 0.00 85 1016.6
20210623083418 70 288 7.0 16.0 0.00 0.01 0.00 84 1016.3
20210623081655 71 304 6.0 16.0 0.00 0.01 0.00 84 1016.2
20210623080124 71 308 0.0 8.0 0.00 0.01 0.00 83 1016.3
20210623074652 71 331 0.0 0.0 0.00 0.01 0.00 85 1016.2
20210623073202 69 331 1.0 9.0 0.00 0.01 0.00 86 1016.0
20210623071612 69 349 0.0 8.0 0.00 0.01 0.00 89 1015.8
20210623070127 68 336 0.0 10.0 0.00 0.01 0.00 91 1015.7
20210623064538 68 360 5.0 11.0 0.00 0.01 0.00 92 1015.4
20210623063056 68 17 1.0 8.0 0.00 0.01 0.00 93 1015.2
20210623061543 67 355 5.0 9.0 0.00 0.01 0.00 93 1015.2
20210623060100 67 351 3.0 9.0 0.00 0.01 0.00 93 1015.3
20210623054544 67 13 3.0 13.0 0.00 0.01 0.00 94 1015.2
20210623053112 67 5 2.0 11.0 0.00 0.01 0.00 95 1015.0
20210623051542 66 317 0.0 8.0 0.00 0.01 0.00 95 1014.8
20210623050039 66 9 9.0 19.0 0.00 0.01 0.00 95 1014.7
20210623044541 66 346 1.0 13.0 0.00 0.01 0.00 95 1014.5
20210623041526 66 355 3.0 9.0 0.00 0.01 0.00 95 1014.0
20210623040025 66 323 1.0 13.0 0.00 0.01 0.00 95 1014.2
20210623034510 66 317 7.0 15.0 0.00 0.01 0.00 95 1014.2
20210623033008 66 293 1.0 11.0 0.00 0.01 0.00 95 1013.9
20210623031506 66 315 3.0 10.0 0.00 0.01 0.00 95 1013.9
20210623030003 66 301 0.0 5.0 0.00 0.01 0.00 94 1013.7
20210623024501 66 295 2.0 11.0 0.00 0.01 0.00 94 1013.6
20210623023000 66 322 3.0 11.0 0.00 0.01 0.00 95 1013.6
20210623020152 66 294 4.0 11.0 0.00 0.01 0.00 95 1013.3
20210623014907 67 329 1.0 11.0 0.00 0.01 0.00 95 1013.0
20210623013155 67 333 4.0 11.0 0.00 0.01 0.00 95 1012.8
20210623011637 67 312 2.0 19.0 0.00 0.01 0.00 95 1012.5
20210623010230 67 292 0.0 13.0 0.00 0.01 0.00 94 1012.6